Tracking 19832 objects as of 25-Aug-2019
HD Live streaming from Space Station
objects crossing your sky now

FENGYUN 1C DEB

Track FENGYUN 1C DEB now!
10-day predictions


NORAD ID: 32313
Int'l Code: 1999-025CXE
Perigee: 811.7 km
Apogee: 1,023.3 km
Inclination: 99.2 °
Period: 103.2 minutes
Semi major axis: 7288 km
RCS: 0.01 m2 (small)
Launch date: May 10, 1999
Source: People's Republic of China (PRC)
Launch site: Taiyaun Space Center, China (TSC)

Note: This is SATELLITE DEBRIS
aabbcc
Your satellite tracking list
Your tracking list is empty




NASA's NSSDC Master Catalog

Two Line Element Set (TLE):
1 32313U 99025CXE 19212.92269223  .00000221  00000-0  18051-3 0  9990
2 32313  99.1707 267.3136 0145196 341.8310  17.7694 13.95225496610592
Source of the keplerian elements: AFSPC